カタリナ-パンスターズ彗星

299P/Catalina-PanSTARRS (1996)

English version
Home page
Updated on November 3, 2020

---------------------------------------------------------------------

・ プロフィール

・ 軌道要素

Epoch 1996 Dec. 23.0 TT = JDT 2450440.5
T 1996 Dec. 10.26990 TT                                 MPCW
q   3.0037136            (2000.0)            P               Q
n   0.11189312     Peri.  319.38579     -0.57708150     +0.79620220
a   4.2651448      Node   274.60175     -0.69411952     -0.59544367
e   0.2957534      Incl.   10.50691     -0.43031969     -0.10727952
P   8.81
From 254 observations 2005 Mar. 11-2016 Aug. 4, mean residual 0".5.

・ 光度変化

        m1 = 10.0 + 5 logΔ + 10.0 log r

---------------------------------------------------------------------

軌道要素はM.P.E.C. 2016-Q04に掲載されたものです。
光度グラフはComet for Windowsで作成したものです。

---------------------------------------------------------------------

Copyright(C) Seiichi Yoshida (comet@aerith.net). All rights reserved.